Probability
0 0 0 0 0 0 0 0 0 0 0 0 0 0 0 0 0 0 0 0 0 0 0 0 0 0 0 0 0 0 0 0 0 0 0 0 0 0 0 0 0 0 0 0 1 8 12 6 1
0 0 0 0 0 0 0 0 0 0 0 0 0 0 0 0 0 0 0 0 0 0 0 0 0 0 0 0 0 0 0 0 0 0 0 0 0 0 0 0 0 0 0 0 0 3 5 3 1
0 0 0 0 0 0 0 0 0 0 0 0 0 0 0 0 0 0 0 0 0 0 0 0 0 0 0 0 0 0 0 0 0 0 0 0 0 0 0 0 0 0 0 0 0 0 0 0 1
0 0 0 0 0 0 0 0 0 0 0 0 0 0 0 0 0 0 0 0 0 0 0 0 0 0 0 0 0 0 0 0 0 0 0 0 0 0 0 0 0 0 0 0 0 0 0 0 0
0 0 0 0 0 0 0 0 0 0 0 0 0 0 0 0 0 0 0 0 0 0 0 0 0 0 0 0 0 0 0 0 1 1 0 0 0 0 0 0 0 0 0 0 0 0 0 0 0
0 0 0 0 0 0 0 0 0 0 0 0 0 0 0 0 0 0 0 0 0 0 0 0 0 0 0 0 0 0 0 1 3 2 0 0 0 0 0 0 0 0 0 0 0 0 0 0 0
0 0 0 0 0 0 0 0 0 0 0 0 0 0 0 0 0 0 0 0 0 0 0 0 0 0 0 0 0 0 0 2 2 2 1 1 0 0 0 0 0 0 0 0 1 1 0 0 0
0 0 0 0 0 0 0 0 0 0 0 0 0 0 0 0 0 0 0 0 0 0 0 0 0 0 0 0 0 0 0 1 1 1 2 2 1 0 0 0 0 0 0 0 1 1 0 0 0
0 0 0 0 0 0 0 0 0 0 0 0 0 0 0 0 0 0 0 0 0 0 0 0 0 0 0 0 0 0 0 0 0 1 1 1 1 0 0 0 0 0 0 0 0 0 0 0 0
0 0 0 0 0 0 0 0 0 0 0 0 0 0 0 0 0 0 0 0 0 0 0 0 0 0 0 0 0 0 0 0 0 0 0 0 0 0 0 0 0 0 0 0 0 0 0 0 0
0 0 0 0 0 0 0 0 0 0 0 0 0 0 0 0 0 0 0 0 0 0 0 0 0 0 0 0 0 0 0 0 0 0 0 0 0 0 0 0 0 0 0 0 0 0 0 0 0
0 0 0 0 0 0 0 0 0 0 0 0 0 0 0 0 0 0 0 0 0 0 0 0 0 0 0 0 0 0 0 0 0 0 0 0 0 0 0 0 0 0 0 0 0 0 0 0 0
0 0 0 0 0 0 0 0 0 0 0 0 0 0 0 0 0 0 0 0 0 0 0 0 0 0 0 0 0 0 0 0 0 0 0 0 0 0 0 0 0 0 0 0 0 0 0 0 0
0 0 0 0 0 0 0 0 0 0 0 0 0 0 0 0 0 0 0 0 1 2 3 2 0 0 0 0 0 0 0 0 0 0 0 0 0 0 0 0 0 0 0 0 0 0 0 0 0
0 0 0 0 0 0 0 0 0 0 0 0 0 0 0 0 0 0 0 0 2 9 17 15 7 1 0 0 0 0 0 0 0 0 0 0 0 0 0 0 0 0 0 0 0 0 0 0 0
0 0 0 0 0 0 0 0 0 0 0 0 0 0 0 0 0 0 0 0 3 17 37 40 20 4 0 0 0 0 0 0 0 0 0 0 0 0 0 0 0 0 0 0 0 0 0 0 0
0 0 0 0 0 0 0 0 0 0 0 0 0 0 0 0 0 0 0 0 2 15 39 44 24 6 0 0 0 0 0 0 0 0 0 0 0 0 0 0 0 0 0 0 0 0 0 0 0
0 0 0 0 0 0 0 0 0 0 0 0 0 0 0 0 0 0 0 0 0 6 17 22 12 3 0 0 0 0 0 0 0 0 0 0 0 0 0 0 0 0 0 0 0 0 0 0 0
0 0 0 0 0 0 0 0 0 0 0 0 0 0 0 0 0 0 0 0 0 0 2 3 2 0 0 0 0 0 0 0 0 0 0 0 0 0 0 0 0 0 0 0 0 0 0 0 0
0 0 0 0 0 0 0 0 0 0 0 0 0 0 0 0 0 0 0 0 0 0 0 0 0 0 0 0 0 0 0 0 0 0 0 0 0 0 0 0 0 0 0 0 0 0 0 0 0
0 0 0 0 0 0 0 0 0 0 0 0 0 0 0 0 0 0 0 0 0 0 0 0 0 0 0 0 0 0 0 0 0 0 0 0 0 0 0 0 0 0 0 0 0 0 0 0 0
0 0 0 0 0 0 0 0 0 0 0 0 0 0 0 0 0 0 0 0 0 0 0 0 0 0 0 0 0 0 0 0 0 0 0 0 0 0 0 0 0 0 0 0 0 0 0 0 0
0 0 0 0 0 0 0 0 0 0 0 0 0 0 0 0 0 0 0 0 0 0 0 0 0 0 0 0 0 0 0 0 0 0 0 0 0 0 0 0 0 0 0 0 0 0 0 0 0
0 0 0 0 0 0 0 0 0 0 0 0 0 0 0 0 0 0 0 0 0 0 0 0 0 0 0 0 0 0 0 0 0 0 0 0 0 0 0 0 0 0 0 0 0 0 0 0 0
0 0 0 0 0 0 0 0 0 0 0 0 0 0 0 0 0 0 0 0 0 0 0 0 0 0 0 0 0 0 0 0 0 0 0 0 0 0 0 0 0 0 0 0 0 0 0 0 0
0 0 0 0 0 0 0 0 0 0 0 0 0 0 0 0 0 0 0 0 0 0 0 0 0 0 0 0 0 0 0 0 0 0 0 0 0 0 0 0 0 0 0 0 0 0 0 0 0
0 0 0 0 0 0 0 0 0 0 0 0 0 0 0 0 0 0 0 0 0 0 0 0 0 0 0 0 0 0 0 0 0 0 0 0 0 0 0 0 0 0 0 0 0 0 0 0 0
0 0 0 0 0 0 0 0 0 0 0 0 0 0 0 0 0 0 0 0 0 0 0 0 0 0 0 0 0 0 0 0 0 0 0 0 0 0 0 0 0 0 0 0 0 0 0 0 0
0 0 0 0 0 0 0 0 0 0 0 0 0 0 0 0 0 0 0 0 0 0 0 0 0 0 0 0 0 0 0 0 0 0 0 0 0 0 0 0 0 0 0 0 0 0 0 0 0
0 0 0 0 0 0 0 0 0 0 0 0 0 0 0 0 0 0 0 0 0 0 0 0 0 0 0 0 0 0 0 0 0 0 0 0 0 0 0 0 0 0 0 0 0 0 0 0 0
Wind_Speed
5 3 1 3 6 6 1 1 1 2 1 2 3 5 6 3 1 1 0 3 5 7 6 8 11 10 9 10 10 10 10 11 12 12 11 10 11 11 12 12 13 13 12 10 9 9 11 11 10
2 1 2 5 6 3 2 2 1 0 3 3 4 4 4 2 1 2 2 4 6 6 5 5 10 10 9 10 10 11 11 12 12 12 11 10 10 11 11 12 12 12 11 10 9 9 11 10 11
2 2 4 5 3 2 2 2 1 3 4 1 2 2 2 2 1 3 3 7 7 5 4 5 9 10 9 10 11 12 12 12 12 12 10 10 10 10 10 11 11 11 10 9 9 10 10 9 11
3 5 5 4 2 1 2 3 1 6 1 2 2 3 2 0 3 4 7 9 7 5 4 5 9 9 9 10 11 12 12 12 12 11 10 9 9 10 10 10 10 10 10 9 9 9 9 8 8
5 3 3 3 2 2 4 3 2 4 2 2 2 2 1 2 3 8 8 8 6 4 3 3 8 8 9 9 11 12 11 10 12 12 10 9 9 9 10 8 9 9 10 9 8 8 8 6 9
4 3 3 2 1 3 4 2 0 3 2 3 4 3 1 1 5 6 7 6 5 4 3 3 7 8 9 10 11 11 11 12 12 11 9 9 9 8 8 8 8 8 9 9 9 9 8 11 13
4 4 2 1 2 4 3 1 1 3 1 2 6 4 2 2 3 6 6 6 5 4 4 3 3 5 9 11 11 11 11 10 10 10 9 9 9 10 9 8 8 8 9 11 11 9 9 11 11
4 5 2 2 3 2 5 4 2 5 3 2 3 4 4 5 6 7 7 5 4 3 3 3 2 2 3 4 9 10 10 11 11 11 10 9 8 9 8 8 7 8 11 12 11 11 11 12 11
3 4 1 2 3 3 3 3 2 2 3 2 3 4 4 9 9 7 4 3 2 2 3 3 2 3 3 3 5 7 9 11 10 8 9 7 3 3 5 5 8 8 10 12 13 13 12 12 10
3 2 5 4 4 3 2 1 2 2 1 0 1 0 5 12 11 9 6 5 5 5 4 3 3 3 3 1 2 3 3 5 5 4 4 3 3 2 4 5 8 8 10 11 12 12 10 7 4
2 3 3 4 5 4 2 2 1 2 1 4 6 6 9 11 8 8 8 8 8 5 5 6 5 4 4 2 2 2 2 3 4 4 4 3 3 2 2 1 3 4 6 5 5 6 4 4 3
1 2 3 3 2 3 1 3 3 1 4 4 6 7 10 13 13 13 13 11 9 8 6 6 6 5 5 5 5 4 4 4 4 4 5 4 3 2 2 2 2 2 3 3 3 3 4 5 5
2 2 3 4 5 4 2 3 5 5 6 3 6 10 11 13 14 12 10 10 9 8 7 6 7 7 7 4 3 3 4 4 5 5 5 5 4 4 3 3 2 2 3 3 3 3 5 5 5
2 2 4 5 5 4 3 5 3 6 2 3 8 11 13 14 15 10 10 7 6 7 7 7 7 6 4 4 4 3 3 4 4 4 6 6 4 4 4 4 3 2 3 3 3 4 5 4 4
1 1 4 5 4 5 3 5 9 7 3 5 7 7 7 7 8 12 14 13 12 9 9 8 7 4 4 3 5 4 4 4 4 4 5 6 5 5 4 4 4 3 4 4 4 4 4 4 4
0 1 2 4 3 3 6 6 11 4 4 4 5 6 7 6 8 9 8 10 9 9 10 9 6 6 5 4 4 3 4 4 4 4 5 6 6 6 4 4 4 4 3 4 4 3 3 3 4
2 1 2 4 4 4 4 5 8 1 4 5 5 6 5 2 2 3 4 7 9 11 11 10 7 5 5 5 5 4 4 4 3 4 5 7 7 6 5 5 4 5 3 3 3 2 2 3 4
4 3 3 5 2 2 2 7 11 3 4 5 6 6 5 5 3 0 1 2 4 5 6 8 6 5 5 4 3 4 3 2 3 3 4 6 5 6 5 4 5 6 4 3 3 3 2 2 4
2 2 3 7 6 3 6 7 12 5 5 6 7 7 5 4 2 1 1 1 3 5 6 6 5 5 5 3 2 2 2 1 2 2 2 2 4 5 5 4 5 6 6 6 6 3 3 2 3
2 3 5 9 8 6 7 6 9 5 5 7 9 9 7 4 2 2 2 1 3 5 7 6 5 4 3 2 2 2 2 2 1 2 2 3 5 6 6 6 6 7 5 6 6 5 4 2 3
5 4 5 7 6 2 1 4 5 4 3 2 3 5 7 6 5 4 2 2 4 5 5 4 4 3 4 4 3 2 2 2 1 2 2 2 5 6 5 5 6 7 7 7 9 8 7 5 2
6 5 6 9 5 4 0 5 5 4 6 4 3 7 8 7 6 4 4 4 5 5 5 4 4 4 3 4 4 4 3 3 3 2 3 4 6 5 4 3 5 7 6 7 9 7 4 7 5
5 5 5 6 4 3 1 3 6 2 6 5 6 8 9 8 7 6 6 6 4 3 3 4 4 4 4 4 5 5 4 4 3 3 4 5 4 5 4 1 3 5 6 7 9 7 5 4 5
2 2 2 3 2 3 5 5 6 3 5 4 4 8 8 7 7 7 6 5 4 3 3 3 4 4 4 5 5 5 5 5 4 4 5 5 5 6 8 6 4 2 1 1 5 7 6 4 4
3 1 3 3 1 4 2 2 8 6 4 5 7 8 8 8 7 8 7 7 7 5 5 4 4 4 4 5 5 5 5 6 6 6 6 6 5 5 9 7 5 3 4 1 2 3 3 4 4
4 7 7 5 3 3 1 4 6 4 3 1 4 5 7 8 8 9 10 9 7 6 5 5 4 3 3 4 4 4 5 5 4 4 4 4 4 5 9 8 6 1 1 3 4 3 3 3 4
2 5 7 5 1 2 4 5 7 2 1 2 3 4 8 9 10 10 8 7 7 7 7 6 5 4 4 4 3 3 4 4 4 4 4 3 4 5 7 8 6 2 2 4 4 3 3 4 4
1 2 2 2 4 3 3 3 5 3 3 2 1 4 7 8 9 8 6 7 8 8 7 6 6 5 3 3 3 3 4 4 4 5 6 5 4 4 5 6 7 6 3 1 3 2 3 3 4
4 2 3 3 2 3 2 6 6 3 3 3 5 5 7 7 7 7 5 6 7 6 6 6 6 5 4 4 3 3 3 3 3 4 4 4 4 5 7 9 9 8 8 8 6 4 5 6 6
4 2 2 3 1 1 1 9 4 3 2 3 5 4 6 8 7 7 6 6 6 6 6 7 7 7 7 5 5 5 5 5 4 4 4 4 3 4 4 6 9 9 8 7 8 8 7 6 4
Wind_Direction
315 329 90 62 50 54 30 271 247 266 12 17 58 79 101 94 114 199 259 168 126 135 159 170 165 156 162 155 153 156 149 144 142 135 130 129 132 133 129 127 123 118 114 112 106 96 86 81 82
317 11 51 69 72 60 302 270 257 195 133 123 73 61 67 74 122 137 136 157 128 139 144 150 157 160 159 153 157 158 153 146 139 133 134 138 143 140 138 131 128 118 112 107 104 98 86 78 93
328 63 67 68 90 136 270 291 264 122 150 90 78 57 78 124 149 171 153 135 126 131 130 156 160 156 155 154 156 156 154 147 139 138 140 146 146 141 137 135 130 120 110 99 93 93 90 88 98
20 37 53 81 89 153 239 298 141 138 152 67 102 72 45 20 163 151 125 124 123 123 126 160 156 153 154 152 154 154 154 148 142 140 142 141 133 133 137 137 127 117 106 95 92 98 102 98 104
50 68 78 78 30 309 290 283 169 153 148 130 110 103 43 354 114 127 132 129 129 126 127 146 148 152 148 150 155 155 153 146 144 138 142 136 131 130 136 137 120 112 105 100 97 103 99 92 109
47 58 89 149 232 298 279 259 38 99 125 135 117 105 285 203 143 138 129 120 122 126 124 131 151 155 150 150 155 156 155 154 148 136 139 135 131 126 133 131 113 98 94 95 99 100 84 93 105
100 83 111 210 41 349 320 335 111 110 149 181 142 112 283 245 154 120 109 111 120 118 114 113 132 160 156 154 155 156 157 154 143 139 134 128 131 128 128 123 102 94 96 100 100 90 84 94 96
107 97 107 220 117 276 300 329 124 150 184 143 122 148 204 196 141 112 102 106 114 111 118 129 135 117 114 143 155 158 158 155 153 146 135 133 132 126 129 123 106 101 102 99 93 82 92 94 86
94 83 172 211 157 247 291 356 2 114 124 162 171 180 196 139 132 115 107 117 127 137 140 151 141 121 128 138 161 161 163 161 158 147 142 125 98 109 121 128 121 111 107 100 87 75 91 89 78
78 128 210 201 204 241 292 13 321 48 72 311 266 218 126 138 152 157 160 175 185 184 168 170 165 155 148 136 126 145 160 145 138 133 118 105 104 124 135 143 132 121 108 93 80 75 88 80 57
117 182 197 227 226 246 309 311 245 113 208 210 206 173 147 141 163 175 180 190 189 181 175 170 179 165 162 157 152 155 130 119 125 136 131 136 122 130 109 93 94 88 82 71 68 72 86 89 72
188 216 189 247 258 278 242 319 311 189 234 225 196 159 156 164 182 188 194 194 183 179 177 163 172 165 183 184 180 172 154 151 154 155 153 144 138 148 148 140 118 98 85 71 54 72 103 90 76
204 218 224 262 294 273 300 284 281 268 256 249 152 150 176 186 195 198 206 199 185 181 170 173 173 182 188 183 165 164 157 161 161 156 160 153 156 161 162 159 137 113 99 88 75 99 108 102 91
211 236 264 265 261 271 265 277 262 262 236 175 165 179 189 195 197 190 198 190 189 182 169 169 192 185 171 155 156 164 160 163 162 168 162 162 168 165 167 167 148 135 109 98 105 122 124 119 110
218 274 289 258 229 225 184 265 234 229 170 198 197 200 206 219 198 201 203 199 192 182 168 175 189 162 156 157 157 156 162 167 171 174 167 164 177 176 171 177 154 154 133 119 107 104 109 114 116
349 47 285 259 206 223 170 241 259 219 165 215 222 222 222 215 207 213 213 212 194 176 171 171 182 153 151 150 145 140 151 158 176 174 169 168 187 185 169 179 160 147 141 135 126 125 119 126 129
22 219 258 277 223 163 164 255 278 194 173 193 218 231 228 176 183 208 227 217 194 186 177 168 162 144 147 137 139 141 149 156 174 178 179 174 188 186 172 186 162 156 160 156 144 120 118 137 140
210 202 231 253 274 116 197 259 276 270 201 205 203 211 203 180 175 246 311 245 186 172 163 154 146 134 111 99 104 98 127 157 163 187 196 168 177 187 178 194 160 163 170 169 162 127 98 125 136
238 223 258 270 269 200 242 251 273 288 227 201 195 201 218 189 199 261 348 337 168 142 132 144 160 141 116 103 101 113 162 176 189 200 228 162 174 189 187 194 162 168 177 178 158 122 111 114 138
225 265 278 282 266 200 240 252 268 263 236 207 197 201 187 193 223 302 339 335 187 168 157 153 155 149 137 124 118 112 118 140 187 122 154 205 201 196 199 182 173 170 160 151 152 143 123 152 184
219 214 245 263 308 278 266 294 280 282 279 259 202 176 160 190 203 223 240 242 218 199 192 179 168 160 156 134 107 82 89 100 125 153 143 230 235 209 205 193 179 168 167 172 171 160 155 155 187
249 255 282 285 288 286 16 279 272 281 294 282 206 167 168 193 200 207 220 228 212 193 182 182 196 198 175 151 159 172 161 168 174 142 135 179 215 209 206 215 200 187 179 178 177 164 158 145 160
252 303 306 283 237 254 247 246 274 330 282 257 210 188 181 193 189 203 217 230 228 203 180 182 204 215 193 183 189 178 159 151 150 148 143 142 143 130 107 78 197 206 196 183 170 164 159 144 157
291 327 24 42 67 259 235 229 273 234 243 260 206 192 182 185 194 213 223 230 235 226 204 183 189 201 194 199 204 187 175 161 159 161 157 153 138 120 102 78 73 55 360 204 169 160 159 145 151
158 145 326 328 321 256 285 209 252 248 248 234 207 196 181 181 198 213 215 216 218 211 206 198 198 199 185 193 203 198 187 179 185 174 174 174 166 141 116 100 70 49 61 68 146 146 169 170 178
205 162 185 214 224 278 273 232 253 263 297 262 178 163 172 198 208 216 213 207 208 208 203 206 211 205 191 208 215 191 191 186 183 172 169 175 166 148 134 127 113 110 176 185 175 171 188 199 203
198 192 199 168 170 254 260 281 296 312 309 56 109 151 195 211 216 221 212 199 199 205 207 204 213 224 197 208 218 198 195 194 180 171 171 175 167 159 148 138 130 184 230 200 172 146 181 203 213
226 149 113 155 174 226 272 265 253 305 275 291 255 225 231 229 233 235 217 200 203 201 196 195 208 231 223 211 219 211 203 203 182 171 186 198 187 165 165 152 162 175 186 212 233 153 178 208 223
325 355 68 117 131 169 238 262 224 245 300 288 292 284 273 257 244 251 239 215 208 192 186 189 198 215 221 222 225 219 216 210 187 179 197 199 195 192 187 179 180 185 193 202 212 205 216 216 210
176 195 146 157 175 71 261 272 257 247 290 283 283 272 273 266 250 245 232 210 206 199 195 189 193 210 212 201 211 216 195 187 190 191 192 192 208 207 186 178 175 181 197 200 196 200 224 229 218